#timestamp,LO_Frequency,Hit,StdDev 
1603338215.7,286047027.2,P
1603338235.6,286047026.3,P
1603338255.4,286047026.6,P
1603338275.2,286047024.0,Y
1603338295.1,286046998.3,P
1603338296.0,286046998.3,N
1603338315.8,286047000.6,N
1603338335.7,286047003.0,N
1603338355.5,286047007.5,N
1603338375.3,286047008.7,N
1603338395.2,286047006.4,N
1603338415.0,286047009.0,N
1603338415.9,286047009.0,N
1603338435.7,286047010.2,N
1603338455.6,286047011.4,N
1603338475.4,286047010.0,N
1603338495.3,286047008.9,N
1603338515.1,286047008.9,N
1603338516.0,286047008.9,N
1603338535.8,286047008.4,N
1603338555.7,286047004.7,N
1603338575.5,286047005.9,N
1603338595.3,286047005.9,N
1603338615.2,286047003.7,N
1603338635.0,286047005.6,N
1603338635.9,286047005.6,N
1603338655.8,286047006.0,N
1603338675.6,286047005.5,N
1603338695.4,286047002.0,N
1603338715.3,286047002.6,N
1603338735.1,286047000.7,N
1603338755.8,286046998.1,N
1603338775.7,286047000.0,N
1603338795.5,286047004.4,N
1603338815.4,286047003.9,N
1603338835.2,286047001.6,N
1603338855.0,286047002.3,N
1603338855.9,286047002.3,N
1603338875.8,286047003.2,N
1603338895.6,286047006.0,N
1603338915.4,286047005.8,N
1603338935.3,286047003.2,N
1603338955.1,286047004.0,N
1603338975.9,286047007.6,N
1603338995.7,286047007.3,N
1603339015.5,286047005.1,N
1603339035.4,286047003.0,N
1603339055.2,286047005.3,N
1603339075.0,286047004.5,N
1603339075.9,286047004.5,N
1603339095.8,286047004.9,N
1603339115.6,286047002.1,N
1603339135.5,286046998.5,N
1603339155.3,286046999.1,N
1603339175.1,286047000.8,N
1603339195.9,286046997.4,N
